Theta_e
316 316 316 316 316 316 318 319 320 321 325 326 326 325 325 325 325 324 325 325 327 330 331 332 331 329 330 331 333 333 333 333 333 333 326 320 319 318 318 318 317 316 316 315 317 319 322 324 324 324 325 327 327 327 327 325 322 320 322 324 323 325 325 324 323 322 320 319 319 319 322 324 323 322 321 322 322 324 325 324 327 324 321 325 320 325 333 331
315 315 315 315 315 315 317 318 318 320 322 325 325 325 325 325 325 325 325 325 326 329 331 331 331 330 329 329 331 332 332 333 332 331 329 325 320 317 317 317 317 316 316 316 318 321 324 324 324 324 326 329 329 328 328 325 324 323 322 324 325 325 322 321 320 319 319 318 318 318 319 323 324 323 321 322 323 323 324 324 327 326 324 325 319 325 332 328
314 313 313 314 314 314 316 317 317 318 319 322 325 325 325 326 326 326 326 326 325 329 331 330 330 330 329 328 329 331 332 331 328 328 331 327 318 316 317 317 318 316 316 319 321 322 323 324 324 324 326 329 328 329 329 325 325 323 321 324 325 323 320 319 319 317 316 316 318 318 317 320 322 323 322 322 324 323 323 324 326 327 326 328 321 325 331 328
313 313 312 313 313 314 315 315 316 317 318 320 323 325 325 325 326 326 327 326 325 327 330 330 329 329 329 328 328 330 329 326 326 329 333 327 317 316 317 317 319 317 318 322 323 322 323 325 324 324 326 328 328 329 329 326 326 324 323 326 323 320 320 318 317 316 315 315 316 317 316 318 320 321 322 322 323 323 324 323 325 325 326 330 324 323 329 327
312 312 312 312 312 313 314 314 315 316 317 318 321 324 325 325 326 328 329 326 325 327 330 330 330 329 328 328 329 329 327 326 328 331 332 327 318 316 317 318 320 319 320 323 323 323 324 325 325 325 326 329 330 329 330 327 325 324 324 324 319 318 319 316 315 314 314 314 315 317 317 317 318 318 320 321 322 322 323 322 323 323 323 329 326 322 325 324
312 311 312 312 312 313 313 313 313 315 316 317 318 322 325 325 326 328 329 327 327 328 328 329 329 328 327 328 330 327 326 329 328 329 331 327 319 317 318 319 320 321 321 323 323 324 325 325 326 328 328 331 331 330 330 326 323 326 326 323 319 316 316 315 314 313 313 314 315 317 316 316 317 318 319 320 321 321 322 321 321 320 322 329 326 322 322 321
311 311 311 311 311 312 313 312 313 313 314 316 318 319 322 325 325 326 327 327 327 327 325 326 328 328 327 328 327 325 326 328 325 325 330 326 319 318 319 320 321 321 322 323 323 325 326 327 328 329 330 331 331 331 330 325 324 327 327 323 319 316 314 314 315 313 312 314 315 315 315 315 316 317 318 318 319 320 320 320 319 318 321 329 326 320 320 321
311 311 311 311 311 311 312 312 312 312 313 315 317 318 319 323 325 326 326 327 326 326 325 325 327 327 326 326 324 324 325 327 323 324 328 325 319 319 320 321 322 321 322 323 324 325 326 328 329 329 330 331 331 331 328 327 326 327 328 322 317 315 314 314 316 315 313 315 315 314 315 316 317 316 316 317 317 318 319 319 318 317 321 326 325 321 319 321
311 311 311 311 311 311 311 311 311 311 312 313 315 317 318 320 324 326 326 327 326 327 326 326 328 327 324 323 324 324 325 326 323 322 327 324 319 318 320 322 323 322 321 322 324 325 326 327 328 329 330 331 332 331 328 329 328 328 328 322 317 316 315 316 317 316 316 317 316 316 316 316 316 315 316 317 317 318 318 319 317 317 320 323 325 323 320 321
310 310 310 310 310 310 310 311 311 310 311 312 313 315 317 319 322 324 326 327 327 326 326 327 328 326 323 322 323 325 326 327 323 322 325 324 319 318 320 321 323 324 322 322 324 325 326 327 328 328 330 330 331 331 329 328 327 327 326 320 318 318 317 317 317 317 319 319 317 317 317 318 316 314 317 317 318 317 317 319 318 318 321 323 325 325 321 322
309 310 310 310 310 310 310 310 311 310 310 311 312 313 315 318 319 321 323 325 327 327 326 328 328 325 323 321 324 326 326 327 325 321 324 326 321 319 320 321 324 326 323 322 323 324 326 327 328 328 329 330 329 330 329 327 326 326 324 321 321 320 318 319 319 319 320 318 317 317 317 318 316 314 316 318 317 317 317 319 319 318 321 323 325 326 323 322
309 309 310 310 310 310 310 310 311 311 310 309 311 312 314 317 318 319 321 324 326 327 327 327 327 326 323 322 324 326 324 326 326 322 323 327 325 323 323 324 326 327 324 322 323 324 325 326 328 328 328 329 329 329 328 326 326 325 324 325 325 324 323 323 322 321 322 320 317 317 320 323 320 315 316 318 318 317 318 320 321 320 321 323 325 328 325 321
308 308 309 310 310 310 310 310 312 312 311 310 310 312 314 318 319 319 319 322 325 326 328 327 327 325 322 322 324 325 323 324 326 322 322 326 326 325 325 325 326 325 324 323 323 323 325 327 327 328 328 329 328 327 327 326 326 325 325 328 328 328 327 328 327 325 324 321 317 320 325 329 324 318 317 318 318 317 318 320 322 322 322 324 326 329 328 322
308 308 309 309 310 310 310 310 311 312 312 311 310 310 313 317 320 320 319 321 324 325 327 327 327 325 322 322 323 323 323 323 324 321 321 324 324 324 323 323 323 323 323 323 323 323 324 327 327 327 327 328 326 325 325 325 325 326 327 327 329 330 329 327 327 327 325 321 319 322 326 329 326 320 317 317 317 318 318 319 320 322 323 324 327 329 329 325
307 308 308 309 309 310 310 310 311 312 313 312 312 311 312 316 319 320 319 320 323 324 326 325 324 322 321 322 321 322 322 322 322 320 320 322 322 322 322 323 323 323 324 325 325 323 324 326 326 327 326 325 325 325 325 325 326 327 327 328 330 330 329 324 323 326 325 319 319 324 326 328 327 324 320 317 317 318 318 319 319 321 322 324 326 326 327 325
307 307 308 309 309 310 310 310 310 311 312 313 313 312 312 314 316 319 320 319 321 324 325 324 322 320 321 322 321 321 321 322 321 320 320 322 322 323 324 324 324 324 325 326 325 323 324 325 324 325 325 324 325 325 326 327 327 326 327 330 331 330 330 327 321 322 322 318 319 323 326 328 326 323 319 316 317 317 317 318 318 319 321 323 325 325 324 325
307 307 307 308 309 309 309 310 310 310 312 312 313 313 312 312 314 317 320 320 320 322 324 324 322 320 322 322 320 321 321 322 321 320 320 322 323 324 325 325 324 325 325 324 324 323 323 324 323 324 324 324 325 325 327 328 328 327 328 329 330 330 330 329 322 319 320 319 320 320 322 325 324 321 319 316 316 316 317 318 317 318 319 322 324 324 324 325
307 307 307 308 308 309 309 310 310 310 311 312 313 313 312 312 313 315 319 320 320 322 324 323 321 322 323 321 320 322 321 322 322 319 319 321 323 324 324 325 324 324 324 323 323 323 324 324 323 323 324 324 324 326 327 328 327 326 328 329 330 329 328 330 325 318 318 319 321 320 319 321 321 322 322 320 318 316 317 317 317 317 318 320 322 323 324 325
307 307 307 308 308 308 309 309 310 310 310 311 312 313 313 312 312 313 317 319 320 322 324 322 320 323 324 321 321 322 321 322 322 320 319 320 322 323 324 324 324 324 324 323 323 323 323 323 323 324 325 325 324 326 326 326 326 326 328 328 328 328 327 329 324 316 316 318 319 321 321 320 320 321 322 322 321 319 319 319 318 317 316 317 319 320 322 322
307 307 307 307 308 308 308 309 309 309 310 310 312 313 313 313 312 313 314 316 319 322 322 320 320 323 323 321 321 322 321 321 321 319 319 320 321 322 323 323 323 322 322 322 323 323 323 323 324 324 325 324 324 325 325 325 327 327 328 328 328 328 328 329 323 315 316 320 321 322 322 322 322 322 321 322 321 319 319 320 319 318 317 317 317 318 319 319
307 307 306 307 307 307 308 308 309 309 309 310 311 312 313 313 313 314 313 314 317 320 320 319 320 322 322 320 321 322 320 320 320 319 319 319 320 322 322 322 322 322 322 322 322 322 322 323 324 323 323 324 324 325 325 326 327 327 327 327 327 328 328 327 322 316 316 320 324 325 324 323 323 322 322 322 321 319 318 318 319 319 318 318 317 317 318 317
307 307 307 306 307 307 307 308 308 308 309 310 310 312 313 312 313 314 314 315 316 318 319 318 319 321 321 321 321 321 320 319 318 318 318 319 321 321 322 321 322 322 321 321 322 322 323 323 323 323 323 323 324 324 325 326 326 326 327 327 327 327 327 325 321 318 317 320 324 325 323 323 322 321 322 322 322 322 319 317 318 318 319 318 318 318 317 317
306 307 307 306 306 306 307 307 308 308 308 309 310 311 313 313 313 314 314 316 317 317 318 317 318 320 321 321 321 321 321 319 318 318 318 320 321 321 322 321 321 321 320 321 322 323 323 323 322 323 323 323 324 324 325 326 325 326 326 326 326 326 327 326 322 318 316 318 321 322 320 321 321 321 321 322 323 323 322 319 318 318 318 318 318 317 318 317
306 306 306 306 306 306 306 306 307 307 308 309 309 310 312 312 313 314 314 316 317 317 318 318 318 319 320 321 320 321 321 319 319 318 319 320 321 321 321 321 321 321 321 320 322 323 323 323 323 324 323 323 324 324 325 326 325 326 326 325 325 325 326 326 321 318 318 319 317 317 320 321 323 324 323 323 324 323 323 321 319 318 318 318 318 316 317 316
305 306 306 306 305 305 305 306 306 306 307 308 309 310 311 311 312 313 314 315 316 315 316 318 319 319 320 320 320 320 321 320 319 319 319 320 321 321 321 321 321 321 321 321 321 323 323 323 324 323 323 323 324 324 325 325 325 325 325 325 325 325 325 325 323 321 324 324 317 316 322 324 323 325 325 324 322 322 321 320 319 318 318 318 317 317 316 316
305 305 306 305 305 305 305 306 306 305 307 309 309 309 309 310 311 311 313 314 314 315 315 317 320 320 320 321 320 320 321 320 319 319 320 320 320 321 321 321 321 321 322 321 322 323 322 322 324 323 323 324 325 324 324 324 324 324 324 324 324 325 325 324 324 324 327 327 319 316 322 324 323 324 324 323 322 321 321 320 319 318 317 317 317 317 318 317
305 305 305 305 305 305 305 307 306 305 307 309 309 308 308 309 310 310 311 312 312 315 316 317 319 320 320 320 319 320 322 320 319 319 319 319 321 321 321 321 321 322 321 322 324 324 322 322 323 322 323 325 325 324 323 323 325 324 323 323 324 324 325 324 324 325 326 324 321 320 322 324 324 324 323 323 323 323 322 322 322 320 318 317 317 317 318 319
305 304 304 304 304 305 306 307 306 306 308 308 308 308 307 308 309 309 310 311 314 315 316 317 318 319 320 320 319 320 321 320 319 319 318 319 320 320 321 321 321 322 321 323 325 322 320 323 323 322 324 325 324 324 323 324 324 322 321 323 324 324 324 324 324 325 323 322 324 324 322 323 325 324 324 324 323 323 324 323 323 323 321 320 319 318 317 318
304 304 303 304 304 305 305 306 307 307 307 307 307 308 308 308 308 311 310 311 315 315 315 317 318 318 320 319 319 320 319 320 319 318 317 319 319 319 320 321 320 321 321 321 322 320 319 321 322 323 324 323 324 323 323 324 323 319 319 322 322 321 321 321 321 322 321 322 325 325 322 323 325 323 324 324 322 323 324 323 323 323 322 321 320 320 318 317
304 304 303 303 304 304 304 305 307 307 307 308 308 308 309 308 308 311 310 311 317 316 315 318 317 318 320 319 320 320 319 318 317 316 316 317 318 317 319 321 321 321 320 318 317 316 315 317 321 322 322 323 323 322 323 324 320 317 319 320 319 319 318 318 318 318 322 326 325 324 323 323 325 323 324 324 321 321 322 321 322 322 321 321 320 320 319 317
304 304 303 303 304 304 304 305 306 307 308 308 308 308 309 309 308 309 310 313 316 316 316 318 318 319 320 319 320 320 319 317 316 316 315 316 317 317 319 321 321 321 320 319 316 314 315 318 320 318 318 321 322 319 320 320 317 317 320 321 321 320 318 319 319 319 324 327 322 320 322 323 324 323 322 322 320 318 319 319 320 320 320 320 318 318 316 314
304 304 303 303 303 304 305 306 305 305 308 308 308 309 309 309 307 307 310 311 312 315 318 318 318 320 320 319 320 320 319 317 316 317 316 317 318 318 321 322 321 322 322 322 319 316 317 318 317 315 315 319 321 320 318 317 316 318 321 322 324 323 322 324 323 321 325 325 317 316 320 322 322 321 321 322 320 319 319 319 319 318 318 317 317 316 315 314
304 304 303 303 303 304 304 305 305 304 306 307 308 309 308 308 307 307 309 310 311 316 318 317 319 320 319 319 320 320 319 318 317 317 317 318 318 319 321 320 320 324 325 323 320 318 318 317 315 315 316 317 321 322 320 317 316 319 322 324 325 325 325 326 325 323 325 322 314 314 318 320 320 319 319 320 321 321 318 317 317 316 316 315 314 314 315 315
303 303 303 303 303 303 303 304 305 305 305 306 307 309 308 307 308 308 308 310 313 317 317 317 319 320 319 319 319 319 320 319 317 318 317 318 318 319 321 320 319 321 323 322 319 319 321 321 317 317 317 317 319 322 321 318 317 319 321 323 324 324 326 326 325 325 326 320 314 315 319 321 320 318 316 317 318 318 316 315 316 315 315 314 312 311 312 312
303 303 303 303 303 303 303 303 304 305 306 306 306 309 309 308 307 307 308 311 314 316 317 318 319 320 320 319 319 319 319 318 318 318 318 318 318 319 321 320 319 319 321 322 320 319 322 321 317 316 317 316 319 321 319 317 318 319 320 322 324 323 323 323 321 320 322 321 318 316 318 319 319 319 317 317 318 315 315 317 316 316 315 313 312 312 311 311
302 303 303 303 303 303 303 303 304 303 305 306 306 307 308 308 307 307 308 311 314 315 317 318 319 319 319 318 319 320 319 318 318 319 318 318 317 318 320 319 318 319 321 323 321 320 322 319 314 315 316 316 319 321 318 319 320 319 319 322 321 319 320 322 319 316 317 322 323 319 318 319 319 320 319 319 319 317 318 319 316 316 315 314 314 313 311 310
302 302 302 303 303 303 302 303 303 303 304 305 305 306 307 308 309 308 308 310 314 315 317 319 319 319 318 318 318 319 319 319 319 319 318 318 317 318 319 319 318 318 320 321 320 321 321 317 313 315 317 316 316 319 318 318 319 318 319 321 318 318 319 320 321 320 319 322 323 320 320 320 319 321 320 320 320 319 319 319 317 315 314 314 314 313 311 311
302 302 302 302 302 302 302 302 303 303 303 304 305 306 306 307 309 309 308 310 313 315 316 318 319 319 318 318 318 317 318 319 319 318 318 318 318 319 318 319 318 319 320 320 321 320 319 316 312 313 315 314 314 317 319 317 315 317 319 319 319 322 321 320 322 324 323 323 323 321 320 319 319 319 319 318 318 318 318 317 316 315 314 314 314 313 312 311
301 301 302 302 302 302 302 302 302 303 303 303 304 305 306 307 308 309 309 309 312 314 315 317 318 319 319 318 317 315 316 318 318 317 318 319 319 319 318 319 319 319 319 319 319 318 317 318 314 312 313 314 314 317 319 317 314 314 317 318 319 321 322 321 321 323 323 323 323 323 320 319 319 319 319 319 318 317 317 316 316 315 314 314 314 313 312 311
300 301 301 302 301 301 302 302 302 302 302 302 303 304 306 307 308 309 309 310 311 313 315 316 317 318 319 318 317 315 315 317 318 318 319 319 319 319 318 318 318 319 319 318 317 317 316 318 316 312 312 315 316 317 319 318 315 314 317 319 319 318 318 320 321 321 322 323 323 324 323 320 319 319 319 320 319 318 317 316 317 316 315 315 313 312 311 311
300 300 301 301 300 300 302 302 301 302 302 302 303 303 305 306 308 309 309 309 311 312 314 316 316 317 318 318 318 316 316 317 317 319 319 318 319 320 319 318 319 319 318 317 316 317 317 316 315 312 313 317 317 316 316 316 315 316 317 318 319 318 317 320 323 321 321 321 320 321 321 320 318 318 318 318 319 318 316 315 316 316 315 315 313 311 311 311
300 300 300 301 300 300 302 302 302 302 302 302 303 303 305 306 307 308 309 309 310 311 313 314 316 316 317 318 318 317 317 318 317 318 319 318 318 319 319 318 320 319 317 317 316 316 315 314 313 312 314 316 314 312 312 313 315 317 317 317 319 319 318 321 323 321 319 318 316 316 318 320 318 316 317 317 316 315 314 314 315 314 314 314 312 310 311 312
300 300 300 301 301 300 301 302 302 302 302 302 303 304 305 305 306 308 309 309 310 311 313 314 315 316 316 317 317 317 318 318 318 318 319 318 318 319 319 318 320 319 317 317 316 314 314 314 314 313 313 312 311 310 311 311 313 317 318 317 319 319 319 320 319 318 318 318 317 317 320 320 317 316 316 316 314 313 313 313 313 314 313 313 312 310 310 312
300 300 300 301 301 301 301 301 301 302 302 303 303 304 304 305 306 307 309 310 310 311 312 313 314 316 316 316 316 318 318 318 318 318 318 319 318 318 319 319 319 319 317 317 316 315 316 315 314 314 313 313 313 312 313 313 312 315 317 316 317 319 319 317 315 315 317 319 319 319 321 320 315 313 314 313 312 311 312 312 312 313 314 313 311 310 311 312
300 300 300 301 302 302 303 302 301 302 303 303 304 304 305 306 307 307 308 310 310 311 311 312 313 314 315 316 316 316 317 319 319 317 318 319 317 317 319 319 319 318 318 317 315 316 317 316 314 315 316 317 316 315 315 315 314 314 316 316 316 318 318 316 315 315 317 320 320 319 320 318 313 312 314 313 312 312 312 312 311 311 313 312 310 311 312 312
299 299 299 300 301 301 302 302 302 303 303 304 304 305 305 306 307 308 308 309 311 311 311 312 313 314 315 315 316 315 315 318 319 317 319 319 315 315 319 319 319 318 317 315 314 315 317 316 315 316 316 317 317 317 316 316 315 314 316 316 316 317 318 317 316 317 317 319 320 319 320 318 315 313 313 313 313 312 312 312 311 311 311 311 311 312 312 312
299 299 299 300 301 301 301 301 302 303 303 304 304 305 306 306 307 308 309 309 311 312 312 311 313 315 315 315 315 315 314 315 317 318 319 317 314 315 319 319 318 317 314 313 313 315 316 316 316 316 317 317 316 316 316 315 315 315 315 316 315 316 318 317 317 318 318 318 319 319 319 320 317 314 314 314 313 312 313 312 312 313 313 313 312 312 312 313
299 299 299 299 301 301 301 301 302 302 303 304 305 306 306 306 307 308 309 310 311 312 313 312 313 315 316 315 315 315 314 315 316 318 318 315 313 316 319 319 317 314 313 313 313 314 316 316 316 316 318 317 316 315 315 315 315 315 314 315 315 315 316 317 317 317 318 318 319 320 320 320 318 315 315 315 314 313 314 314 314 313 313 313 313 313 313 313
298 299 300 299 300 301 302 303 303 302 302 303 305 305 306 307 307 308 309 311 312 313 312 312 314 316 316 315 315 314 315 316 316 316 316 314 315 317 318 318 316 312 312 313 313 314 316 316 316 316 317 316 315 315 316 315 315 314 314 314 314 315 315 316 316 317 317 318 318 319 319 319 318 317 316 315 315 315 315 315 314 313 314 314 314 314 314 313
298 299 299 300 300 301 301 302 303 304 303 303 304 305 306 307 307 308 309 311 312 313 312 312 313 315 316 316 316 315 316 316 317 316 315 314 315 317 317 318 316 313 312 313 312 314 316 317 316 315 315 314 314 316 318 316 315 314 314 314 314 314 315 316 316 317 317 318 317 318 319 318 318 317 317 316 315 315 315 314 314 314 315 315 315 315 314 313
298 298 299 300 300 300 301 302 302 304 305 305 305 305 306 307 308 308 310 311 311 313 313 312 313 315 316 317 316 316 316 316 317 317 315 314 316 316 316 317 315 314 314 314 313 313 315 317 316 314 315 314 312 314 317 316 315 315 315 314 314 315 316 316 316 317 317 317 318 318 319 318 317 317 317 316 315 315 315 315 315 315 315 314 314 314 314 314
298 298 299 299 300 301 301 302 302 303 303 304 306 306 306 307 307 308 310 312 312 313 313 313 314 316 317 316 316 317 316 316 317 317 315 314 315 315 316 316 315 314 314 314 314 313 314 315 314 313 315 315 313 313 315 315 315 315 315 315 315 315 316 316 316 316 316 317 317 318 318 317 316 316 316 315 315 315 315 315 315 315 314 314 314 314 314 314
Wind_Speed
26 22 21 24 26 24 23 23 23 23 25 27 26 29 30 29 30 32 34 33 33 35 34 32 30 29 29 28 28 26 23 21 22 27 30 29 30 31 30 25 22 20 18 18 17 14 10 8 8 6 6 4 3 3 6 7 4 2 2 4 4 5 3 1 2 3 2 3 6 4 2 5 4 5 5 4 7 6 4 7 7 9 9 8 6 7 11 12
26 22 20 22 25 25 24 23 23 23 25 25 22 25 29 28 29 29 31 31 31 35 37 33 30 29 28 29 29 26 23 22 23 29 33 32 33 33 30 26 24 21 19 18 16 13 10 9 8 7 8 6 4 4 5 5 5 4 2 4 5 2 2 5 5 5 4 3 4 3 1 4 2 4 5 5 7 9 7 8 9 9 10 13 10 9 13 12
25 22 21 21 23 24 24 24 24 23 24 25 21 22 26 27 27 27 27 28 29 33 36 32 28 28 26 29 29 25 24 22 24 30 32 32 33 34 31 28 26 24 20 15 13 12 10 8 8 8 8 7 5 5 5 5 6 4 2 5 4 1 4 5 4 5 5 4 3 3 2 3 3 3 4 5 7 8 9 9 9 11 11 14 14 12 14 13
25 23 22 21 22 23 24 24 24 24 24 27 23 20 23 25 25 24 24 26 28 30 32 30 26 26 25 27 27 26 24 18 23 30 30 32 35 34 34 29 27 27 20 13 12 12 10 9 9 9 8 7 6 6 6 7 6 5 5 6 1 1 1 4 5 4 4 3 3 3 1 3 2 4 6 6 7 7 9 10 9 10 10 14 16 15 16 14
24 24 22 22 23 23 24 25 24 24 24 27 26 21 21 25 25 24 24 25 26 29 32 30 27 25 25 26 26 25 22 9 15 29 30 34 38 36 35 31 29 27 18 12 13 11 10 10 10 10 9 8 7 6 9 9 5 4 6 4 2 2 2 4 4 3 3 1 2 2 2 1 0 5 8 9 8 4 2 2 5 6 6 12 15 16 18 16
24 24 23 22 23 22 22 25 25 24 23 24 25 23 20 23 26 26 26 26 26 28 30 29 27 26 25 26 26 25 23 6 4 23 30 35 41 37 35 32 29 28 19 12 12 11 12 13 12 11 11 9 8 8 8 8 6 5 6 6 2 1 1 3 2 2 2 0 2 2 3 4 5 7 8 11 13 6 5 5 5 4 3 10 14 16 19 18
23 22 23 22 22 22 21 24 25 25 24 22 22 24 22 21 25 27 27 26 27 28 28 26 26 27 26 26 26 25 25 10 1 14 25 35 43 38 35 32 29 28 20 14 14 13 14 14 14 13 11 10 10 10 6 7 7 8 5 6 6 2 2 2 2 1 1 1 2 3 3 5 8 6 4 10 14 11 11 14 12 9 5 10 14 15 18 19
23 22 22 22 22 22 22 23 25 26 25 23 21 23 24 22 22 25 27 27 28 28 26 25 26 27 28 29 27 21 22 15 2 8 20 36 46 39 35 32 29 27 21 16 15 15 14 15 15 13 11 9 9 9 7 6 8 10 7 5 7 4 3 1 1 1 1 1 2 3 6 7 7 6 6 13 16 11 12 15 16 12 8 10 13 15 17 20
23 22 22 21 21 22 22 22 24 26 27 26 23 22 24 24 22 22 25 27 27 27 26 26 27 28 30 31 28 17 20 20 7 5 20 39 47 41 36 33 30 29 24 18 15 15 15 15 16 13 11 9 8 8 9 7 6 9 9 5 7 6 5 3 3 3 2 2 2 4 8 7 4 5 9 16 15 10 10 14 15 12 11 12 13 14 17 20
23 22 21 20 20 20 22 22 22 25 27 29 28 24 22 25 24 21 23 26 27 27 26 27 28 31 33 31 25 14 19 27 13 3 17 38 48 44 38 35 33 31 26 20 16 16 16 15 15 12 9 7 8 7 9 8 1 3 6 4 6 7 5 5 6 6 5 5 4 5 9 6 3 3 7 6 5 7 7 9 11 11 13 14 14 15 16 19
23 22 20 20 19 20 21 23 22 24 27 30 32 29 23 24 26 23 22 25 27 28 28 31 31 32 34 31 22 13 15 29 21 5 14 34 45 45 41 37 34 32 25 18 15 16 16 14 12 11 6 6 8 7 8 7 1 3 5 4 7 8 8 8 9 9 7 5 4 4 9 10 5 5 10 8 5 8 6 6 9 11 13 14 15 15 16 19
24 22 20 19 19 20 22 23 23 24 26 29 33 33 26 24 26 25 23 23 25 28 30 32 31 31 33 28 22 15 14 27 26 10 14 29 36 40 40 36 33 32 24 17 16 16 16 14 13 13 7 6 7 4 6 8 3 3 4 5 7 8 10 13 14 12 9 5 2 2 9 13 9 10 16 15 14 14 9 9 10 11 13 13 14 16 17 19
24 22 20 19 18 20 22 24 25 25 26 28 33 35 30 23 24 26 26 24 22 27 33 34 31 33 32 21 19 18 14 23 26 15 18 27 30 32 33 32 29 26 21 18 18 18 17 14 15 16 10 9 7 3 4 8 6 5 5 6 5 6 9 13 15 13 10 8 4 1 7 10 8 13 18 16 14 12 10 11 11 12 12 13 14 15 17 19
23 23 21 20 18 19 22 25 26 24 25 27 31 37 34 25 22 25 27 26 21 23 34 37 34 35 29 17 18 19 15 22 24 17 22 27 27 27 25 24 22 19 18 16 17 19 18 14 15 14 8 7 7 6 4 7 6 5 4 4 5 7 4 6 9 11 10 8 8 6 7 8 5 7 11 11 12 10 10 12 12 13 13 14 15 16 18 20
23 22 21 20 18 19 21 25 26 24 23 25 28 34 37 29 22 23 26 28 23 20 29 35 35 34 22 12 18 21 19 23 24 18 22 27 27 26 24 22 22 20 19 17 18 19 15 13 14 13 7 3 9 9 5 5 5 6 4 4 6 7 3 7 9 11 7 4 10 9 5 8 10 11 9 9 11 10 11 13 11 13 13 14 16 17 19 19
23 22 21 20 18 18 19 23 26 24 22 22 24 29 37 34 24 23 24 27 25 20 27 33 35 32 16 9 17 24 25 25 25 21 22 26 26 26 26 24 24 23 20 18 20 18 14 13 10 10 10 8 9 8 5 5 6 6 5 5 7 8 7 5 7 9 7 4 10 11 7 6 7 10 10 8 11 10 11 13 13 14 13 14 15 16 18 19
22 21 21 20 19 18 18 21 25 24 22 21 22 25 34 36 29 24 22 25 23 19 30 38 39 32 12 9 19 28 31 26 27 27 24 25 24 25 27 26 24 23 19 16 16 15 15 15 8 7 11 9 9 9 7 8 7 6 6 6 9 10 8 6 5 7 9 6 8 11 10 13 8 6 8 8 8 8 11 12 13 14 13 13 13 14 16 17
21 21 21 20 19 18 17 20 23 24 22 20 20 21 28 34 33 26 20 22 20 19 29 36 37 22 6 15 27 33 35 30 32 33 27 26 24 25 27 24 21 21 19 14 13 16 17 16 9 7 10 10 10 10 9 9 9 10 9 7 9 10 9 10 4 6 9 8 8 10 11 16 14 13 16 15 11 11 13 11 11 13 13 12 12 13 15 16
22 21 21 20 19 18 18 19 21 22 21 20 20 19 22 28 31 28 22 20 20 16 11 22 34 14 4 24 32 32 38 36 35 34 31 29 25 25 25 21 21 22 20 14 14 19 18 12 9 10 10 11 13 14 13 10 10 12 11 8 9 9 9 9 3 5 5 6 7 10 12 15 14 14 16 18 17 17 18 16 13 12 13 13 12 13 14 16
21 21 21 21 20 19 18 19 20 20 20 19 20 19 17 19 18 19 22 22 24 19 2 16 43 20 2 24 30 28 35 34 35 36 34 31 27 27 26 24 24 22 18 14 14 20 18 11 11 12 13 16 17 17 16 12 9 10 10 10 10 9 8 6 5 6 3 4 7 9 13 16 16 14 14 15 16 17 18 17 16 15 14 14 15 15 16 19
20 20 21 20 20 19 18 19 19 20 19 18 21 18 13 17 14 10 20 24 30 34 17 15 35 15 2 24 35 36 35 25 28 34 33 32 30 27 27 27 22 15 18 19 16 17 16 12 14 15 15 16 17 16 15 13 10 10 9 9 9 9 10 5 4 6 4 2 8 10 13 16 16 14 14 15 15 17 18 17 16 17 16 16 17 18 19 23
20 19 20 20 20 20 19 19 19 20 19 18 21 17 11 20 20 13 18 18 25 38 33 24 23 13 6 25 35 42 40 23 18 27 32 34 31 26 26 26 18 14 19 19 14 13 12 13 16 18 17 15 15 15 15 14 11 9 8 8 8 8 9 6 5 5 4 2 7 9 12 15 16 15 16 18 18 19 20 19 18 18 18 18 17 17 19 23
20 19 19 19 19 19 19 20 19 20 21 20 21 18 13 18 21 15 15 12 14 24 31 28 23 17 18 25 29 40 39 26 22 28 37 37 31 28 27 24 18 17 19 17 13 12 10 12 17 19 18 16 15 16 16 13 9 8 7 7 8 7 8 7 4 3 4 4 7 10 10 12 15 15 16 20 24 24 23 22 22 22 22 23 21 18 18 20
19 19 18 18 18 19 18 19 20 20 21 21 20 19 15 16 18 15 12 6 7 8 17 23 23 23 24 25 31 39 34 30 33 37 43 40 32 29 26 24 22 17 17 19 18 15 10 8 15 19 17 16 15 15 16 11 7 9 10 8 8 7 7 5 1 0 4 6 4 7 10 9 12 14 13 15 19 22 22 21 22 24 26 28 28 26 24 23
20 19 18 18 18 18 18 19 20 21 21 20 19 18 16 14 14 15 10 1 5 5 9 14 18 25 27 25 31 35 25 24 33 41 46 42 33 27 23 25 22 15 18 22 18 14 11 10 14 17 16 17 15 13 15 12 7 8 10 9 10 8 7 7 4 3 6 6 3 1 8 6 5 9 8 5 7 11 13 16 19 20 23 26 29 32 33 32
20 20 18 18 18 19 19 16 18 21 19 17 17 18 18 15 11 15 11 1 5 5 6 12 13 19 27 27 32 31 18 15 25 39 45 38 33 26 19 19 15 15 21 20 12 8 9 13 16 17 17 17 15 12 14 13 8 7 7 8 11 9 7 8 6 4 7 6 1 1 7 6 5 8 9 7 7 9 10 12 16 18 17 19 25 33 37 38
20 20 19 18 18 19 17 11 15 20 17 15 16 19 21 16 12 16 12 2 6 5 8 12 10 15 25 30 38 25 9 16 22 33 44 36 30 24 16 15 11 14 19 14 9 5 9 18 17 17 17 14 13 11 12 14 10 4 4 8 12 10 9 7 5 6 6 6 4 5 7 8 8 10 13 13 13 14 14 14 15 16 17 18 23 30 34 38
20 19 19 18 18 19 16 10 13 19 16 13 16 21 21 17 15 16 8 5 4 6 7 10 8 15 23 36 44 21 13 29 20 23 43 35 24 19 12 14 13 15 20 15 9 4 10 19 18 16 15 11 12 10 11 15 9 1 4 7 11 9 7 6 4 5 5 4 6 7 4 6 8 6 9 11 12 14 15 13 12 13 17 19 21 23 27 31
20 19 18 18 18 19 18 12 12 16 16 13 15 19 19 19 17 10 3 6 4 5 4 12 11 13 21 31 34 19 19 25 11 20 41 31 22 15 7 15 18 15 14 9 5 3 5 12 16 17 13 10 13 11 14 16 7 2 4 6 6 4 2 1 2 3 3 5 8 7 5 6 8 5 6 8 8 10 10 7 7 9 12 13 13 15 17 19
21 19 19 19 18 20 20 16 12 12 15 14 14 20 22 21 13 5 6 5 2 3 6 13 12 12 19 17 14 15 16 10 12 27 28 17 19 14 8 16 17 11 6 3 4 3 3 5 9 12 9 10 11 6 8 13 9 8 7 8 8 4 4 2 1 1 4 8 7 7 10 8 7 4 5 5 2 2 2 2 3 4 5 6 8 9 8 9
21 20 20 20 20 20 18 16 14 13 14 15 17 25 25 15 5 6 8 0 3 4 8 10 11 14 18 12 6 13 14 8 18 27 13 7 14 11 10 11 6 5 5 3 4 2 5 8 6 4 3 7 11 7 5 9 13 11 7 7 6 2 3 1 1 1 6 7 1 1 7 10 8 4 3 2 2 2 1 2 3 4 7 8 7 4 5 8
21 20 20 21 21 20 15 12 16 18 15 15 23 29 20 7 6 8 5 4 2 6 8 8 11 14 18 15 8 12 14 10 17 21 13 10 10 9 11 10 7 7 5 7 6 3 7 6 3 4 2 8 13 9 5 7 10 8 7 7 6 4 3 4 4 3 8 6 3 3 2 7 10 8 7 7 7 6 4 3 5 7 10 11 10 6 8 14
22 20 19 21 21 20 16 11 13 18 17 17 24 23 11 5 8 8 6 4 1 3 8 9 11 16 20 16 10 10 12 12 16 18 16 13 10 11 11 10 12 7 5 11 9 6 6 1 0 5 4 10 14 11 7 6 8 8 8 8 7 5 4 6 7 6 6 3 4 4 2 5 9 7 9 13 14 11 3 1 3 6 10 11 12 12 13 15
21 21 20 21 21 20 20 16 12 14 18 20 18 12 8 8 8 10 10 5 3 3 9 9 11 17 20 17 11 10 9 9 17 17 15 14 10 10 10 9 12 4 5 10 6 7 8 1 7 11 7 11 15 12 9 8 8 9 8 8 7 6 6 5 5 6 5 1 3 5 3 5 4 2 2 5 6 6 4 4 6 9 11 11 10 8 8 9
21 21 20 21 21 20 23 22 15 13 17 17 10 5 8 8 7 9 10 4 2 3 8 11 12 13 15 14 13 15 8 5 17 17 13 15 12 11 10 10 14 8 8 11 5 7 9 3 6 7 6 14 15 12 13 14 8 7 7 7 8 7 5 3 0 1 2 1 2 5 4 5 4 6 8 7 4 6 9 9 8 9 9 8 7 5 3 2
21 22 21 21 22 23 23 22 19 17 17 13 7 6 6 5 5 6 7 7 5 5 8 10 11 8 7 6 10 17 9 3 15 14 9 14 14 15 13 9 14 13 10 11 5 7 10 3 5 6 6 15 13 11 15 14 7 5 6 6 3 1 3 4 2 2 0 5 5 6 5 6 6 10 12 13 12 11 12 10 6 5 5 3 2 2 5 6
22 21 22 23 23 23 23 21 18 18 16 9 5 7 6 5 6 6 9 10 8 9 9 8 8 8 7 3 5 14 9 4 13 11 8 12 11 14 14 9 14 16 13 11 5 6 9 4 3 7 10 12 8 10 14 9 6 7 7 7 5 5 4 3 4 3 4 7 5 5 8 7 5 5 4 9 12 12 11 9 6 7 5 4 4 5 8 10
21 20 21 23 23 21 21 21 19 16 12 6 6 8 7 8 10 9 11 13 11 12 10 6 6 7 9 7 4 9 8 7 11 9 9 11 8 13 16 11 16 20 18 14 7 6 9 6 1 2 6 6 5 10 12 5 3 4 6 9 7 2 3 5 5 5 7 8 5 6 10 8 8 7 2 6 10 9 8 8 9 9 8 7 7 6 8 11
20 16 18 22 23 21 20 21 20 16 10 6 7 8 5 8 14 16 16 15 12 12 9 6 7 5 7 9 7 7 9 9 11 9 9 8 5 14 20 13 15 22 20 14 8 7 7 5 3 2 3 6 4 7 10 7 3 2 4 9 6 4 4 5 4 3 5 7 6 6 7 7 8 10 9 9 11 9 7 8 9 11 11 10 9 7 7 10
19 12 11 18 24 24 22 20 19 14 7 7 10 8 6 8 14 21 25 20 12 11 9 5 8 8 5 7 9 9 8 8 12 10 8 10 8 12 20 16 15 23 21 12 7 7 4 3 6 5 5 8 8 7 11 12 8 5 7 11 8 3 1 3 5 4 4 5 6 6 7 6 3 6 10 13 12 8 5 6 8 11 12 10 9 8 7 8
19 10 7 14 19 23 26 19 13 10 7 9 11 10 10 9 11 19 29 28 17 12 13 9 8 8 6 7 8 9 8 7 11 9 6 12 10 7 17 21 18 21 18 9 8 8 3 3 8 8 9 11 8 4 5 8 11 10 8 10 11 8 4 5 7 7 6 5 5 5 7 7 2 5 7 9 9 6 5 5 6 9 10 10 12 11 7 6
17 8 6 15 17 23 28 15 7 9 8 10 13 13 13 11 11 16 23 28 21 13 14 13 9 8 6 7 7 8 10 8 11 11 7 13 14 10 21 31 27 26 19 9 7 5 2 4 7 7 9 8 3 3 2 0 7 11 8 9 12 10 9 10 8 6 6 4 2 3 7 7 3 6 6 6 7 7 7 7 7 8 10 10 13 14 7 4
18 11 9 17 19 24 24 9 7 11 8 12 16 18 18 13 12 15 18 23 19 10 9 11 10 9 5 6 7 9 12 10 13 16 10 13 17 12 23 36 33 26 17 9 7 4 3 5 6 6 4 4 4 2 1 4 2 10 12 11 12 14 14 9 3 3 6 6 4 3 8 7 1 3 3 5 7 6 5 6 6 6 8 10 13 13 6 3
21 17 10 17 25 27 20 9 9 11 10 14 15 17 20 17 15 17 16 18 16 9 7 8 9 10 7 7 7 9 11 9 11 16 11 10 12 9 23 40 35 22 16 14 14 11 7 6 6 8 5 3 4 4 5 6 6 10 11 9 10 16 16 6 1 2 4 8 9 6 9 6 1 1 2 4 6 5 5 5 5 6 7 9 12 12 6 4
16 14 12 19 30 26 14 9 12 11 12 16 15 16 19 17 19 24 20 18 18 13 8 8 11 10 9 11 9 8 11 8 6 11 11 8 4 4 22 39 34 24 20 20 22 15 9 7 7 9 9 10 11 9 9 11 8 6 11 12 12 18 20 10 3 4 8 9 11 10 11 4 4 4 5 4 4 4 6 6 6 7 8 10 12 11 7 7
10 9 10 14 21 20 13 12 14 10 11 15 12 15 19 16 17 27 27 21 21 19 13 11 16 13 10 15 12 9 13 8 1 7 11 8 0 2 22 37 34 26 17 18 25 16 4 6 8 8 8 7 7 4 5 9 11 11 16 18 14 16 17 10 5 8 9 5 9 15 15 5 4 8 9 7 7 6 7 8 8 9 11 12 12 8 7 9
8 7 9 9 10 14 13 13 12 9 12 15 10 11 20 20 15 20 25 21 21 24 18 13 17 14 12 17 14 10 14 9 3 7 9 6 2 1 20 31 28 24 17 16 24 15 2 7 14 12 8 1 1 3 9 12 15 15 16 16 14 13 12 10 12 14 8 5 9 15 14 12 10 10 11 10 9 7 7 10 11 11 11 11 9 9 11 12
12 9 13 14 8 7 10 13 14 14 17 18 12 12 20 24 20 17 19 18 20 24 18 14 20 18 15 18 14 11 15 11 6 6 6 5 3 4 15 18 17 21 18 12 17 11 2 9 15 13 7 2 2 9 13 13 13 15 16 16 16 17 17 17 21 19 12 10 11 6 13 18 16 12 13 11 10 11 11 11 10 9 7 7 10 13 14 14
15 8 11 17 13 8 11 16 19 20 21 19 15 16 20 24 25 19 13 12 15 21 21 16 18 19 17 19 16 14 16 12 7 7 6 9 10 8 10 10 9 16 16 8 8 8 4 7 11 11 7 1 3 9 13 14 14 16 19 21 22 24 24 25 26 22 18 19 15 5 10 16 13 10 12 13 15 16 12 8 7 5 7 11 12 11 13 15
19 12 10 13 13 14 15 16 16 15 17 18 16 16 19 23 26 22 16 14 12 16 24 24 19 20 19 17 17 15 17 17 14 13 13 13 12 11 12 11 9 13 14 10 7 8 8 8 11 11 7 4 3 4 9 14 16 18 20 21 23 25 26 28 26 19 17 22 19 10 10 12 7 8 13 16 15 10 7 8 9 10 13 12 10 12 16 18
24 19 14 9 8 13 14 12 12 11 11 14 15 15 18 23 27 22 18 24 25 19 23 27 23 21 19 19 20 16 17 23 20 19 23 20 14 13 11 9 13 15 13 12 11 10 9 8 9 10 8 7 6 6 7 9 11 14 16 19 24 26 25 24 20 15 17 19 15 11 13 10 7 10 14 13 7 4 9 13 12 14 15 11 12 19 21 20
27 23 19 12 7 10 11 9 12 14 11 11 14 17 19 23 28 24 16 21 32 31 29 29 25 19 15 20 25 25 27 29 21 19 25 16 7 8 8 9 19 21 15 13 11 10 10 7 7 10 9 6 6 7 8 8 6 8 13 22 29 28 22 15 13 17 21 15 10 11 14 8 7 11 13 9 7 9 13 14 16 18 18 18 21 23 22 21
Wind_Direction
225 221 217 217 219 222 222 222 222 217 208 204 206 206 206 209 210 214 217 218 218 208 199 201 206 208 209 210 210 209 209 210 211 209 211 208 205 204 199 193 183 181 187 191 196 198 192 194 196 196 200 197 198 222 231 226 244 284 248 228 232 237 227 93 70 43 18 60 65 80 165 211 177 166 207 228 227 233 213 203 212 215 209 216 221 163 182 207
223 221 218 218 219 222 222 221 222 219 210 205 204 204 203 206 208 211 214 215 218 210 199 196 201 206 209 211 211 209 207 209 211 211 211 208 205 203 197 189 180 175 184 189 191 191 185 191 192 198 210 203 188 196 216 218 222 242 259 237 239 246 59 54 55 45 25 36 45 61 122 227 203 148 184 218 223 212 219 217 209 221 212 217 227 177 188 205
219 219 217 217 217 220 220 219 221 220 214 211 206 203 203 203 204 207 210 214 217 209 198 192 195 200 206 211 209 206 206 207 211 214 213 209 205 202 195 187 178 172 176 184 188 192 194 194 190 198 215 218 198 194 200 189 202 212 228 246 245 103 80 77 76 64 44 19 4 41 63 234 221 167 179 222 239 222 229 227 203 217 209 206 221 192 191 203
215 216 215 214 216 218 218 217 220 220 219 217 209 202 205 202 200 204 209 212 213 207 196 189 190 192 200 207 204 202 199 203 219 218 213 206 203 200 194 186 177 171 171 185 191 192 199 193 193 202 217 229 207 209 210 180 187 186 204 244 287 72 165 112 98 79 67 20 349 1 327 242 210 199 210 229 245 235 236 236 217 230 212 198 216 203 199 205
214 216 214 211 214 216 216 217 219 220 220 219 214 203 201 203 199 199 203 206 207 205 197 190 187 189 195 198 199 198 188 195 233 222 215 204 199 197 192 186 180 172 168 190 196 191 198 195 199 206 216 229 206 217 223 190 188 192 205 233 55 337 281 111 103 84 87 37 326 297 297 310 292 225 228 230 241 250 305 253 214 254 227 203 222 212 208 214
216 217 216 210 211 213 212 216 218 220 218 219 220 209 199 203 200 197 201 203 202 202 199 193 190 188 189 192 196 192 185 191 238 216 216 202 197 196 189 187 183 174 169 189 196 187 195 194 197 202 210 226 212 214 212 177 190 218 211 212 188 271 27 94 88 76 103 279 273 291 328 324 282 253 238 233 242 264 319 292 250 281 241 208 231 223 215 220
217 216 218 212 208 210 208 211 216 219 218 217 220 215 207 203 203 204 203 203 201 202 202 202 200 190 182 186 189 186 196 223 325 210 213 198 195 193 186 185 181 172 167 183 189 186 189 190 196 201 209 221 216 211 186 160 199 231 226 194 187 159 120 114 33 39 133 229 286 308 302 284 270 272 266 242 248 260 274 273 266 267 227 203 227 231 226 227
217 215 216 212 207 206 204 206 211 216 218 217 216 216 212 206 206 207 204 203 203 204 202 204 205 190 178 178 176 181 207 220 232 208 200 191 192 190 186 185 182 172 166 183 190 187 189 193 197 198 211 218 214 202 169 173 207 225 236 182 173 174 169 183 328 250 190 216 283 297 271 266 264 284 284 261 262 264 259 262 265 258 225 209 225 232 228 226
216 215 215 214 207 203 203 203 208 214 218 219 219 218 215 213 210 208 204 201 203 206 203 205 204 190 179 175 171 182 208 200 179 198 191 188 190 190 190 189 189 181 173 179 188 192 195 200 199 199 219 220 208 194 176 204 215 212 223 183 176 193 191 226 249 222 217 246 267 280 272 264 253 281 276 264 262 253 243 250 257 249 224 217 221 228 228 226
213 214 214 214 205 201 203 202 204 211 215 219 222 222 220 217 213 212 206 200 203 206 207 209 202 191 181 173 174 189 202 194 187 195 189 188 190 192 195 194 195 193 184 177 185 200 202 204 201 202 233 229 203 197 190 208 222 171 201 183 193 204 200 224 235 232 254 265 248 264 278 269 220 248 261 255 226 218 231 245 251 238 220 218 215 223 230 227
211 212 213 211 202 195 198 201 200 203 209 214 219 223 225 222 218 217 212 206 204 204 212 212 198 190 183 175 183 194 194 195 194 192 185 187 191 195 198 200 202 203 194 182 190 201 208 215 202 192 219 225 202 201 199 198 105 121 170 199 218 220 220 226 235 239 252 258 227 257 283 270 228 209 237 244 243 247 245 235 244 235 218 215 214 218 228 228
210 210 211 210 199 187 189 198 199 198 203 208 214 220 226 226 221 219 217 214 208 204 210 206 195 189 182 180 193 194 188 195 196 193 181 184 190 195 198 200 203 203 193 186 196 202 213 217 203 199 206 208 191 179 198 194 191 173 180 230 223 225 236 229 229 233 237 231 182 319 286 260 229 213 234 244 250 255 246 224 230 230 219 216 213 213 224 229
208 208 210 210 199 184 182 192 198 198 198 203 208 215 222 224 220 219 216 215 213 208 209 204 197 188 179 183 200 198 189 190 194 188 175 181 185 187 192 193 192 192 186 188 197 201 210 210 207 212 217 218 195 133 166 173 186 187 197 249 233 235 244 224 219 221 227 219 170 152 273 258 230 218 231 236 232 233 230 224 223 222 218 215 213 210 220 228
206 207 209 209 202 187 179 186 197 198 195 198 202 210 219 221 217 218 214 214 213 208 207 202 193 183 178 187 193 192 189 183 190 185 172 176 177 175 179 179 172 172 179 193 206 203 205 209 208 202 212 236 183 150 158 154 185 192 174 232 239 250 240 169 186 195 207 206 179 191 253 266 266 224 220 220 219 217 227 234 229 223 217 213 212 212 217 226
205 207 208 209 205 191 179 183 193 198 195 194 196 204 214 220 218 214 213 213 213 209 205 197 185 175 174 192 186 183 187 181 183 184 175 172 169 168 168 168 167 170 179 194 203 195 187 190 196 189 182 176 153 166 180 154 193 202 187 213 216 240 216 138 158 184 196 178 178 194 245 258 258 252 225 211 222 218 233 244 237 229 221 215 216 219 222 227
204 206 207 208 205 196 182 180 190 197 195 192 193 199 209 218 220 214 213 213 214 212 203 196 184 173 171 191 181 180 184 180 178 178 176 173 169 168 168 169 171 175 179 186 186 178 171 176 192 195 177 167 172 185 196 187 200 202 220 232 207 224 235 186 158 179 189 143 179 202 249 260 246 246 228 228 240 227 237 246 243 240 230 223 221 222 226 226
202 203 205 207 204 198 185 177 186 195 195 191 190 194 205 215 220 218 212 208 211 209 204 199 184 178 185 171 171 183 184 177 178 176 169 171 170 167 168 167 166 172 175 175 173 171 181 185 185 191 185 194 203 199 205 209 207 200 212 230 223 225 238 226 158 165 187 184 203 207 237 256 252 245 231 235 241 228 239 243 242 246 238 231 229 226 230 227
200 199 201 205 204 198 188 178 181 192 196 190 187 190 199 210 218 221 212 202 200 200 205 197 180 176 198 177 180 188 183 176 180 179 168 166 171 171 169 164 159 162 166 168 174 180 187 187 185 198 201 207 206 201 211 213 203 200 200 209 225 223 233 245 206 150 179 194 225 219 231 252 254 254 251 250 248 245 250 246 242 243 238 236 234 233 236 234
197 197 197 201 202 197 190 181 179 187 193 190 186 183 190 205 216 223 221 205 195 198 206 184 176 179 219 186 185 183 182 182 181 180 172 164 168 175 171 167 165 163 166 173 184 188 186 184 193 209 207 202 205 206 210 215 205 203 208 212 226 225 228 241 191 131 173 197 225 234 244 257 258 255 254 252 250 250 254 252 247 242 238 239 239 239 238 241
196 194 194 197 199 196 191 185 181 182 187 188 183 173 175 189 203 225 226 219 211 208 279 178 181 190 211 173 171 171 176 181 180 180 180 171 165 171 171 170 171 173 179 181 184 186 186 194 204 209 207 201 206 208 211 221 213 208 221 224 231 239 231 220 162 135 151 229 241 247 257 263 264 262 260 257 252 250 252 253 249 243 238 238 241 241 240 250
195 192 193 195 196 195 191 188 185 182 183 186 181 173 173 178 181 217 217 227 227 215 237 222 191 203 316 167 172 172 163 163 174 176 178 176 167 166 172 173 171 181 191 185 181 183 189 210 212 209 208 204 207 209 214 221 218 217 226 227 230 239 244 228 139 139 142 236 258 258 265 267 267 268 265 261 253 247 246 247 249 247 244 242 243 241 244 256
194 192 192 193 193 193 190 188 188 185 183 184 183 180 182 183 191 209 203 225 241 225 237 247 216 227 199 170 177 175 161 147 157 166 169 170 169 171 175 179 180 185 189 184 180 181 197 218 213 207 206 203 205 208 214 217 216 223 223 227 232 231 243 225 140 148 168 222 269 270 272 272 272 272 266 260 256 253 247 242 243 245 246 245 244 241 243 254
194 192 192 193 192 191 190 188 189 188 187 187 188 189 185 184 193 200 191 215 257 236 237 243 236 223 177 165 173 172 165 157 158 169 171 167 174 182 177 181 188 184 186 186 184 185 199 215 208 204 203 201 202 204 211 212 206 218 219 223 231 224 238 228 160 157 196 233 276 286 283 276 274 269 260 254 249 249 245 238 237 236 239 243 244 243 239 246
194 192 193 193 192 193 192 190 191 193 193 191 192 194 193 191 193 184 173 215 286 242 237 241 235 217 183 165 173 173 168 169 171 174 175 171 175 181 180 185 188 185 191 189 189 196 202 206 199 197 199 201 201 198 203 208 204 215 221 228 233 220 226 239 258 301 238 234 251 290 287 271 264 259 256 251 239 240 241 237 236 233 236 240 242 245 243 243
194 193 193 191 191 191 189 192 196 197 197 196 196 196 197 198 197 188 173 297 293 231 244 237 219 212 195 172 176 177 168 173 177 174 173 174 175 176 181 188 187 187 190 186 188 203 208 198 191 193 197 200 203 202 202 205 210 214 219 233 242 235 233 245 276 312 274 249 166 307 289 274 267 262 260 262 235 233 235 233 233 233 236 239 240 245 247 249
194 195 192 190 190 186 185 192 198 199 199 200 199 196 200 200 190 185 174 323 279 210 204 205 196 203 198 179 170 172 169 173 177 176 172 172 176 175 177 184 190 193 183 180 189 209 200 188 189 194 196 200 205 209 204 202 214 220 204 214 234 245 249 252 269 281 270 272 143 149 280 283 296 284 274 276 270 256 248 239 233 232 231 230 237 245 247 249
195 195 192 192 188 183 181 184 197 197 195 201 200 193 199 200 172 160 159 246 253 164 154 184 184 191 191 174 165 167 168 157 165 179 176 171 174 176 176 177 186 191 175 171 192 200 178 180 187 193 194 199 206 206 198 199 212 212 142 182 215 231 240 248 268 264 268 302 291 241 261 280 278 274 269 264 264 263 255 248 243 236 229 225 233 243 245 247
195 195 195 194 190 186 178 173 195 194 191 202 198 190 194 192 164 150 163 233 193 126 147 173 178 190 182 171 170 166 140 152 159 184 179 174 173 175 182 179 176 179 174 177 190 165 168 179 180 185 191 198 203 202 190 194 208 139 111 176 202 212 230 250 265 265 284 323 282 246 229 270 271 260 257 247 245 255 255 250 247 237 233 233 235 241 246 249
194 195 194 191 190 191 184 180 190 191 195 199 191 189 185 169 153 138 196 231 143 81 146 166 176 187 171 168 174 162 144 158 154 168 175 177 176 174 178 180 176 170 173 185 183 133 159 182 183 184 192 200 200 199 193 195 202 130 137 135 137 152 145 290 272 280 298 279 266 245 204 253 282 266 244 237 232 250 257 249 240 234 236 244 247 247 246 248
194 196 194 190 190 191 192 193 188 186 194 188 179 181 168 153 145 152 205 211 117 91 146 159 169 167 160 168 178 157 149 151 126 148 167 176 172 171 151 167 172 158 146 54 74 108 102 150 185 187 200 205 187 174 185 188 162 129 137 113 101 109 98 81 299 12 288 266 259 228 207 230 282 278 219 222 237 256 264 233 213 229 243 255 264 259 248 246
193 196 196 195 194 193 196 199 193 179 177 178 173 166 158 151 158 195 199 164 42 167 159 158 160 153 163 176 178 158 152 135 140 147 152 156 168 172 145 155 165 125 119 72 70 86 133 153 176 163 178 165 138 97 88 147 146 140 147 131 122 131 105 154 209 151 251 255 344 170 202 213 238 247 179 161 54 114 195 272 259 277 280 276 278 262 256 274
193 196 198 198 199 199 195 201 203 189 176 178 174 163 153 159 203 200 181 73 70 187 162 157 162 156 170 184 187 168 152 142 154 153 153 163 175 182 168 169 168 137 152 169 155 147 155 158 125 97 163 167 146 131 109 133 154 166 169 163 180 188 160 226 219 215 247 236 104 81 163 219 241 254 249 259 269 248 244 277 279 291 293 285 280 271 276 286
193 196 200 200 203 202 191 186 194 195 196 189 176 166 161 190 194 189 180 148 106 170 145 149 169 163 167 182 195 177 157 155 163 158 159 167 174 188 192 184 171 164 170 165 151 144 148 27 65 145 189 205 186 170 156 157 169 177 175 175 195 191 180 226 222 225 246 214 130 114 111 253 263 272 255 252 258 258 255 161 239 268 283 286 279 272 277 283
195 198 202 204 206 204 197 189 171 180 198 193 178 174 191 201 181 175 195 200 43 126 151 145 167 171 170 179 186 175 167 161 162 158 159 168 177 188 194 190 188 182 122 149 152 158 160 214 202 182 174 191 200 196 166 144 158 176 179 185 203 203 200 219 219 226 235 155 135 151 162 241 247 1 315 272 265 248 215 217 240 256 274 292 298 290 289 288
197 201 205 208 209 208 207 204 189 181 187 184 183 203 197 191 182 181 192 187 86 184 173 151 163 179 181 181 175 177 197 180 162 161 164 170 178 187 181 187 197 190 146 159 174 172 175 199 178 171 161 169 188 203 162 136 155 184 173 193 215 219 225 237 264 248 253 298 194 189 228 255 271 312 290 273 264 234 233 244 249 254 267 289 309 325 352 348
198 201 206 210 211 210 208 207 202 198 194 186 195 225 214 194 190 185 171 162 163 171 166 164 170 182 190 186 178 182 200 199 165 164 171 176 179 184 182 185 195 196 179 165 152 176 186 173 117 110 146 171 182 196 171 155 164 167 171 201 194 64 283 245 205 92 6 276 243 197 239 265 278 286 260 237 236 234 242 250 231 221 235 244 283 54 82 77
198 202 209 212 211 210 208 203 199 197 197 201 209 214 225 226 216 196 170 170 163 155 168 186 178 177 184 189 198 186 172 145 171 168 164 177 184 183 180 187 194 199 198 178 160 181 169 122 112 142 155 169 163 168 177 174 153 153 185 187 114 47 329 257 233 211 209 254 257 214 240 251 246 263 228 210 226 229 237 237 189 176 189 168 139 107 92 83
201 206 217 217 209 205 201 196 194 192 192 209 238 228 224 223 223 216 188 178 168 169 183 198 180 180 186 181 194 193 175 159 177 175 162 171 184 182 178 181 192 199 202 191 177 164 146 111 69 179 153 150 139 161 177 189 189 189 177 156 145 209 220 191 219 237 227 243 269 247 242 240 228 232 174 163 190 193 201 195 172 173 172 148 138 126 96 83
198 209 232 225 207 196 192 191 188 188 191 206 230 235 229 226 227 224 208 190 180 187 193 190 186 191 196 186 164 173 195 189 173 170 176 181 176 180 182 179 185 195 200 198 185 159 148 131 145 191 147 141 154 183 184 181 196 256 168 166 194 242 203 191 201 239 245 241 260 259 239 236 227 220 217 203 191 184 181 178 176 177 168 152 146 141 110 84
193 210 238 220 207 197 188 186 183 181 194 209 220 225 214 223 229 224 218 208 192 190 192 188 189 190 200 192 164 162 198 205 183 178 183 184 171 175 186 184 178 186 191 194 179 150 144 132 138 149 149 159 183 204 195 182 168 175 182 183 197 200 165 221 207 211 238 236 251 260 251 255 229 187 211 218 211 198 174 171 176 172 167 160 157 155 129 87
188 212 219 197 206 196 179 176 178 182 201 210 220 229 222 225 230 225 222 219 213 199 195 195 187 183 186 189 180 171 181 193 190 191 187 183 182 177 188 190 178 173 176 180 172 159 162 153 138 149 174 184 193 199 191 188 182 185 187 183 189 185 170 198 205 203 213 231 254 269 272 271 184 152 197 208 198 170 137 146 156 165 176 173 170 171 144 82
182 212 187 172 188 179 169 171 183 186 206 212 212 220 222 227 229 225 222 219 219 211 206 207 187 172 180 190 194 179 178 186 188 193 201 192 199 199 187 187 178 169 170 167 163 151 93 115 124 140 176 177 137 47 40 249 199 198 205 200 193 191 193 202 207 186 179 217 280 302 284 279 142 148 185 171 146 129 140 164 165 177 195 186 176 177 161 57
190 208 165 160 180 177 168 178 199 187 208 219 215 218 219 224 226 223 221 217 215 206 213 216 184 172 183 181 193 193 185 187 189 194 199 195 206 205 180 180 177 171 173 160 148 147 106 117 118 110 122 109 89 90 359 359 236 204 212 212 202 203 204 204 220 169 171 201 207 232 263 267 103 125 155 121 120 131 165 180 173 184 191 181 180 180 175 351
204 217 189 167 183 184 177 184 194 194 211 213 214 221 221 227 229 222 219 216 211 195 205 221 183 172 180 169 186 208 196 193 200 204 204 190 203 200 176 179 178 175 180 172 166 175 168 149 136 130 135 149 148 171 205 224 228 214 206 201 207 209 200 183 106 173 204 208 189 202 247 243 112 129 172 126 133 159 195 200 196 196 178 171 182 186 198 292
205 223 219 186 187 192 195 196 187 191 206 205 209 215 216 226 230 226 225 219 210 193 184 219 207 186 177 174 185 212 214 217 209 210 212 189 192 208 178 180 181 182 189 178 166 167 170 163 155 150 160 181 185 185 194 198 201 206 196 189 197 202 194 182 151 190 227 212 180 204 236 211 115 174 190 169 169 184 196 200 202 199 183 172 181 193 226 278
196 213 214 192 197 215 237 230 208 201 202 201 207 214 214 221 225 224 227 224 214 202 191 206 206 195 184 183 186 208 223 240 230 202 210 184 124 252 178 179 185 184 173 159 158 159 161 170 178 184 178 184 195 179 138 148 157 180 194 189 186 194 192 177 168 208 219 190 192 221 232 221 169 181 178 181 196 199 190 185 185 191 191 187 192 218 267 284
194 211 204 179 194 217 230 234 228 223 213 206 205 208 212 218 221 218 220 221 214 204 202 207 200 193 188 185 186 199 212 237 255 194 190 166 18 255 174 178 185 173 147 145 161 160 124 180 190 200 188 128 17 129 121 141 165 176 180 176 173 185 189 180 203 216 191 157 226 226 215 225 221 184 181 191 188 187 188 185 189 193 192 196 218 264 283 287
205 226 211 198 198 202 205 212 211 217 222 217 213 212 210 214 217 215 211 215 215 205 201 210 203 195 185 181 188 199 201 224 253 196 171 146 130 153 168 178 179 159 145 158 172 163 149 193 195 194 178 82 107 152 143 150 165 162 162 170 176 186 194 201 216 218 189 195 236 190 176 216 224 196 195 194 180 191 196 189 189 188 196 237 264 273 277 287
209 228 206 202 214 219 210 205 200 208 219 218 218 222 216 213 216 216 203 198 213 208 202 205 201 194 186 181 187 197 195 201 214 200 181 159 157 155 157 172 179 162 156 165 179 177 187 192 189 189 190 194 175 169 160 158 160 163 174 181 183 191 201 209 219 218 205 221 239 195 187 221 221 205 205 194 189 198 197 190 198 217 253 265 263 259 268 284
208 213 196 200 219 229 230 223 209 209 213 211 216 222 222 220 217 215 205 194 202 206 203 204 195 185 185 183 188 199 196 190 194 196 183 164 164 175 172 172 180 174 170 170 177 191 202 189 175 179 195 214 216 207 180 166 166 176 183 185 187 197 207 216 221 214 211 230 236 231 248 249 222 210 211 197 189 188 197 219 236 248 253 253 251 258 269 277
215 212 204 203 219 223 229 230 223 228 223 211 212 214 218 224 219 216 216 208 205 200 198 199 191 182 186 188 189 194 188 189 199 196 184 179 176 178 180 174 169 169 173 177 178 185 196 188 163 168 198 205 190 192 178 158 165 181 187 190 195 202 210 218 220 205 208 226 225 228 256 251 188 195 211 203 186 189 221 234 247 255 254 255 258 264 268 269
219 219 216 218 235 225 221 225 225 230 234 224 218 216 218 222 217 216 222 214 206 197 189 189 186 181 187 189 193 197 191 193 203 194 186 193 197 185 192 174 170 174 177 176 179 180 182 179 157 170 196 196 165 162 148 128 142 187 198 199 201 207 211 216 220 212 214 220 207 218 241 230 167 182 201 205 206 218 231 239 246 254 258 257 255 257 262 265